Showing default

AAC-AIS-SAT3, 58997

Orbit data source: Space-Track

AAC-AIS-SAT3, 58997 is a UK payload satellite in SSO that was launched on Sat, 11 Nov 2023 UTC via an FALCON 9 launch vehicle from the Air Force Western Test Range (AFWTR). Payload-class satellites include a variety of spacecraft equipped with specific instruments for various scientific and technological missions. These include communications satellites like Starlink; space stations such as the ISS; scientific satellites like the Hubble; Earth observation satellites from companies like Planet Labs, Umbra, and HawkEye 360; GPS; miniature CubeSats for education and research; and military/defense satellites.

Loading next visibility...
Identifier
58997, 2023-174DJ
Orbit
SSO
Country
Flag of UKUK
Related business
Manufacturer
AAC ClydeSpace
Mission
Operational Commercial Communications
Bus & Motor
CUBESAT 3U, Unknown motor
Mass
5 kg wet, 5 kg dry
Launch date (UTC)
2023-11-11 (3 years ago)
Launch vehicle
FALCON 9
Launch site
Air Force Western Test Range (AFWTR)
Object type
Payload
Rocket body
Debris
Shape & HBR
Box, 1.0 m
Radar Cross Section
0.080 m², Medium (>0.1 m² and < 1m²)

Expand to show TLE details & history
Last TLE update: 22 hours ago

TLE from 22 hours ago
0 AAC-AIS-SAT3
1 58997U 23174DJ  26172.51676050  .00002098  00000-0  25335-3 0  9993
2 58997  97.6236 220.9868 0005081 315.1870  44.8935 14.84762400141798
Epoch: 2026-06-21T12:24Z
TLE epoch observation values (Epoch: 2026-06-21T12:24:08.107Z)
Latitude
0.00005°
Longitude
125.23711°
Altitude
614.851 km
Speed
7.553 km/s
True Right ascension
14h 43m 56s
True Declination
0° 00' 00"
Sunlit
Object was in full shadow at epoch
Visualization orbit readout
Latitude
Unknown
Longitude
Unknown
Altitude
Unknown
Speed
Unknown
Apparent Right ascension
Unknown
Apparent Declination
Unknown
Sunlit
N/A
Visualization observer readout
Local Sidereal Time
21:38:40
Azimuth
Unknown
Elevation
Unknown
Doppler factor
Unknown
Orbital elements
Apogee altitude
614.905 km
Perigee altitude
607.803 km
Semi-major axis
6,989.491 km
Eccentricity
0.00051
Inclination
97.6236°
RAAN
220.9868°
Arg. of periapsis
315.187°
True anomaly
44.93461°
Mean anomaly
44.8935°
Eccentric anomaly
44.91405°
Mean motion
3.71428 °/min
Orbital period
96.92 mins
BSTAR
0.00025335
Loading maneuver chart data...
Computing Atmospheric mass density...

Documentation

Showing up to 5 results
|